Grafton, ND

3:46 AM CDT on July 28, 2017 (GMT -0500)
Grafton Municipal

Weather History for KGAF - December, 2013

Change the Weather History Date:

Tuesday, December 10, 2013

  Actual Average Record
Temperature  
Mean Temperature -6 °F -  
Max Temperature 0 °F 17 °F 42 °F (1974)
Min Temperature -13 °F 1 °F -28 °F (1977)
Degree Days  
Heating Degree Days 72    
Moisture  
Dew Point -14 °F    
Average Humidity 74    
Maximum Humidity 84    
Minimum Humidity 65    
Precipitation  
Precipitation 0.00 in - - ()
Sea Level Pressure  
Sea Level Pressure 30.03 in    
Wind  
Wind Speed 7 mph (WNW)    
Max Wind Speed 15 mph    
Max Gust Speed 18 mph    
Visibility 10 miles    
Events      
Averages and records for this station are not official NWS values.
T = Trace of Precipitation, MM = Missing Value Source: NWS Daily Summary

Daily Weather History Graph

Daily Weather History Graph

Search for Another Location

Airport or City:

Trip Planner

Search our weather history database for the weather conditions in past years. The results will help you decide how hot, cold, wet, or windy it might be!

Date:

Astronomy

Dec. 10, 2013 Rise Set
Actual Time 8:10 AM CST 4:34 PM CST
Civil Twilight 7:33 AM CST 5:11 PM CST
Nautical Twilight 6:53 AM CST 5:50 PM CST
Astronomical Twilight 6:15 AM CST 6:28 PM CST
Moon 1:01 PM CST (12/10) 1:02 AM CST (12/10)
Length of Visible Light 9h 37m
Length of Day
8h 24m
Waxing Gibbous, 62% of the Moon is Illuminated
Dec 10
Waxing Gibbous
Dec 17
Full
Dec 25
Last Quarter
Jan 1
New
Jan 7
First Quarter

Hourly Weather History & Observations

Time (CST) Temp. Windchill Dew Point Humidity Pressure Visibility Wind Dir Wind Speed Gust Speed Precip Events Conditions
12:15 AM -7.6 °F -16.5 °F -11.2 °F 84% 29.85 in 10.0 mi West 3.5 mph - N/A   Clear
12:35 AM -9.4 °F -18.6 °F -13.0 °F 84% 29.86 in 10.0 mi WNW 3.5 mph - N/A   Clear
12:55 AM -7.6 °F -16.5 °F -11.2 °F 84% 29.87 in 10.0 mi West 3.5 mph - N/A   Clear
1:15 AM -7.6 °F -20.6 °F -13.0 °F 77% 29.86 in 10.0 mi WNW 5.8 mph - N/A   Clear
1:35 AM -9.4 °F -20.9 °F -14.8 °F 77% 29.86 in 10.0 mi NW 4.6 mph - N/A   Clear
1:55 AM -13.0 °F -22.7 °F -16.6 °F 84% 29.86 in 10.0 mi NNW 3.5 mph - N/A   Clear
2:15 AM -7.6 °F - -11.2 °F 84% 29.87 in 10.0 mi Calm Calm - N/A   Clear
2:35 AM -9.4 °F -22.7 °F -13.0 °F 84% 29.88 in 10.0 mi West 5.8 mph - N/A   Clear
2:55 AM -9.4 °F -24.3 °F -13.0 °F 84% 29.88 in 10.0 mi West 6.9 mph - N/A   Clear
3:15 AM -11.2 °F -26.4 °F -16.6 °F 77% 29.88 in 10.0 mi WSW 6.9 mph - N/A   Clear
3:35 AM -11.2 °F -30.1 °F -16.6 °F 77% 29.90 in 10.0 mi WSW 10.4 mph - N/A   Clear
4:35 AM -7.6 °F -23.4 °F -11.2 °F 84% 29.90 in 10.0 mi WNW 8.1 mph - N/A   Clear
4:55 AM -5.8 °F -21.2 °F -11.2 °F 77% 29.90 in 10.0 mi NW 8.1 mph - N/A   Clear
5:15 AM -5.8 °F -22.4 °F -11.2 °F 77% 29.89 in 10.0 mi WNW 9.2 mph - N/A   Partly Cloudy
5:35 AM -7.6 °F -22.1 °F -11.2 °F 84% 29.89 in 10.0 mi WSW 6.9 mph - N/A   Partly Cloudy
5:55 AM -13.0 °F -22.7 °F -18.4 °F 77% 29.88 in 10.0 mi SW 3.5 mph - N/A   Partly Cloudy
6:15 AM -13.0 °F -25.1 °F -18.4 °F 77% 29.88 in 10.0 mi SSW 4.6 mph - N/A   Clear
6:35 AM -11.2 °F -29.0 °F -16.6 °F 77% 29.88 in 10.0 mi WSW 9.2 mph - N/A   Mostly Cloudy
6:55 AM -11.2 °F -23.0 °F -16.6 °F 77% 29.88 in 10.0 mi SW 4.6 mph - N/A   Mostly Cloudy
7:15 AM -11.2 °F -29.0 °F -16.6 °F 77% 29.88 in 7.0 mi WSW 9.2 mph - N/A   Clear
7:35 AM -11.2 °F -29.0 °F -16.6 °F 77% 29.88 in 10.0 mi SW 9.2 mph - N/A   Clear
7:55 AM -11.2 °F -29.0 °F -16.6 °F 77% 29.89 in 10.0 mi SW 9.2 mph - N/A   Clear
8:15 AM -13.0 °F -33.4 °F -18.4 °F 77% 29.90 in 10.0 mi SW 11.5 mph - N/A   Clear
8:35 AM -13.0 °F -30.0 °F -18.4 °F 77% 29.89 in 10.0 mi SW 8.1 mph - N/A   Clear
8:55 AM -11.2 °F -32.1 °F -16.6 °F 77% 29.90 in 10.0 mi SW 12.7 mph - N/A   Clear
9:15 AM -11.2 °F -32.1 °F -16.6 °F 77% 29.91 in 10.0 mi WSW 12.7 mph - N/A   Clear
9:35 AM -9.4 °F -26.8 °F -13.0 °F 84% 29.92 in 10.0 mi SW 9.2 mph - N/A   Clear
9:55 AM -9.4 °F -28.9 °F -14.8 °F 77% 29.93 in 10.0 mi SW 11.5 mph - N/A   Clear
10:15 AM -9.4 °F -22.7 °F -16.6 °F 71% 29.94 in 10.0 mi SSW 5.8 mph - N/A   Clear
10:35 AM -9.4 °F -25.6 °F -14.8 °F 77% 29.94 in 10.0 mi SSW 8.1 mph - N/A   Clear
10:55 AM -7.6 °F -22.1 °F -13.0 °F 77% 29.95 in 10.0 mi SW 6.9 mph - N/A   Clear
11:15 AM -7.6 °F -23.4 °F -13.0 °F 77% 29.95 in 10.0 mi SSW 8.1 mph - N/A   Clear
11:35 AM -5.8 °F -16.7 °F -11.2 °F 77% 29.96 in 10.0 mi WSW 4.6 mph - N/A   Partly Cloudy
11:55 AM -4.0 °F -17.8 °F -11.2 °F 71% 29.96 in 10.0 mi West 6.9 mph - N/A   Mostly Cloudy
12:15 PM -2.2 °F -12.5 °F -11.2 °F 66% 29.97 in 10.0 mi WSW 4.6 mph - N/A   Overcast
12:35 PM -2.2 °F -15.6 °F -11.2 °F 66% 29.97 in 10.0 mi West 6.9 mph - N/A   Scattered Clouds
12:55 PM -0.4 °F -15.7 °F -9.4 °F 66% 29.98 in 10.0 mi NW 9.2 mph - N/A   Clear
1:15 PM -0.4 °F -14.7 °F -9.4 °F 66% 29.99 in 10.0 mi NNW 8.1 mph - N/A   Clear
1:35 PM -0.4 °F -12.0 °F -9.4 °F 66% 30.00 in 10.0 mi NNW 5.8 mph - N/A   Clear
1:55 PM -0.4 °F -13.4 °F -9.4 °F 66% 30.00 in 8.0 mi NNW 6.9 mph - N/A   Scattered Clouds
2:15 PM -0.4 °F -15.7 °F -9.4 °F 66% 30.01 in 9.0 mi North 9.2 mph - N/A   Partly Cloudy
2:35 PM -2.2 °F -18.9 °F -9.4 °F 71% 30.02 in 10.0 mi North 10.4 mph - N/A   Clear
2:55 PM -2.2 °F -18.9 °F -11.2 °F 66% 30.04 in 10.0 mi North 10.4 mph - N/A   Clear
3:15 PM -2.2 °F -18.0 °F -11.2 °F 66% 30.05 in 10.0 mi NNW 9.2 mph - N/A   Clear
3:35 PM -2.2 °F -18.9 °F -11.2 °F 66% 30.07 in 10.0 mi North 10.4 mph - N/A   Clear
3:55 PM -4.0 °F -24.5 °F -11.2 °F 71% 30.07 in 10.0 mi North 15.0 mph - N/A   Clear
4:15 PM -4.0 °F -22.1 °F -11.2 °F 71% 30.09 in 10.0 mi NNW 11.5 mph - N/A   Clear
4:35 PM -4.0 °F -20.2 °F -11.2 °F 71% 30.11 in 10.0 mi NNW 9.2 mph - N/A   Clear
4:55 PM -5.8 °F -23.4 °F -13.0 °F 71% 30.12 in 10.0 mi NW 10.4 mph - N/A   Clear
5:15 PM -4.0 °F -19.0 °F -13.0 °F 65% 30.14 in 10.0 mi NW 8.1 mph - N/A   Clear
5:35 PM -5.8 °F -21.2 °F -11.2 °F 77% 30.15 in 10.0 mi NW 8.1 mph - N/A   Clear
5:55 PM -4.0 °F -17.8 °F - N/A% 30.17 in 10.0 mi WNW 6.9 mph - N/A   Clear
6:15 PM -4.0 °F -20.2 °F - N/A% 30.18 in 10.0 mi WNW 9.2 mph - N/A   Clear
6:35 PM -4.0 °F -21.2 °F -11.2 °F 71% 30.19 in 10.0 mi NW 10.4 mph - N/A   Clear
6:55 PM -4.0 °F -20.2 °F -13.0 °F 65% 30.20 in 10.0 mi NW 9.2 mph - N/A   Clear
7:15 PM -5.8 °F -22.4 °F -13.0 °F 71% 30.22 in 10.0 mi NW 9.2 mph - N/A   Partly Cloudy
7:35 PM -5.8 °F -25.2 °F -13.0 °F 71% 30.23 in 10.0 mi NW 12.7 mph - N/A   Scattered Clouds
7:55 PM -4.0 °F -23.7 °F -13.0 °F 65% 30.24 in 10.0 mi NW 13.8 mph 18.4 mph N/A   Mostly Cloudy
8:15 PM -4.0 °F -21.2 °F -13.0 °F 65% 30.25 in 10.0 mi NW 10.4 mph - N/A   Mostly Cloudy
8:35 PM -5.8 °F -23.4 °F -13.0 °F 71% 30.27 in 10.0 mi NW 10.4 mph - N/A   Clear
8:55 PM -7.6 °F -24.6 °F -13.0 °F 77% 30.28 in 10.0 mi WNW 9.2 mph - N/A   Clear
9:15 PM -7.6 °F -23.4 °F -13.0 °F 77% 30.28 in 10.0 mi WNW 8.1 mph - N/A   Clear
9:35 PM -9.4 °F -25.6 °F -16.6 °F 71% 30.29 in 10.0 mi West 8.1 mph - N/A   Clear
9:55 PM -9.4 °F -25.6 °F -14.8 °F 77% 30.30 in 10.0 mi WNW 8.1 mph - N/A   Clear
10:15 PM -9.4 °F -24.3 °F -16.6 °F 71% 30.31 in 10.0 mi WNW 6.9 mph - N/A   Clear
10:35 PM -9.4 °F -22.7 °F -16.6 °F 71% 30.32 in 10.0 mi WNW 5.8 mph - N/A   Clear
10:55 PM -13.0 °F -27.0 °F -18.4 °F 77% 30.33 in 10.0 mi West 5.8 mph - N/A   Clear
11:15 PM -9.4 °F -26.8 °F -16.6 °F 71% 30.34 in 10.0 mi NW 9.2 mph - N/A   Clear
11:35 PM -9.4 °F -28.9 °F -16.6 °F 71% 30.34 in 10.0 mi WNW 11.5 mph - N/A   Clear
11:55 PM -9.4 °F -25.6 °F -16.6 °F 71% 30.35 in 10.0 mi WNW 8.1 mph - N/A   Clear